Seldovia, AK

11:20 PM AKST on February 24, 2017 (GMT -0900)
Seldovia

Weather History for PASO - October, 2013

Change the Weather History Date:

Tuesday, October 29, 2013

  Actual Average (PAHO) Record (PAHO)
Temperature  
Mean Temperature 41 °F -  
Max Temperature 46 °F 38 °F 54 °F (2016)
Min Temperature 36 °F 28 °F 6 °F (1975)
Degree Days  
Heating Degree Days 24    
Moisture  
Dew Point 39 °F    
Average Humidity 90    
Maximum Humidity 97    
Minimum Humidity 68    
Precipitation  
Precipitation 0.07 in - - ()
Sea Level Pressure  
Sea Level Pressure 29.47 in    
Wind  
Wind Speed 1 mph (NE)    
Max Wind Speed 12 mph    
Max Gust Speed 24 mph    
Visibility 10 miles    
Events Rain    
Averages and records for this station are not official NWS values.
T = Trace of Precipitation, MM = Missing Value Source: NWS Daily Summary

Daily Weather History Graph

Daily Weather History Graph

Search for Another Location

Airport or City:

Trip Planner

Search our weather history database for the weather conditions in past years. The results will help you decide how hot, cold, wet, or windy it might be!

Date:

Astronomy

Oct. 29, 2013 Rise Set
Actual Time 9:20 AM AKDT 6:19 PM AKDT
Civil Twilight 8:36 AM AKDT 7:03 PM AKDT
Nautical Twilight 7:48 AM AKDT 7:51 PM AKDT
Astronomical Twilight 7:00 AM AKDT 8:38 PM AKDT
Moon 3:12 AM AKDT (10/29) 4:38 PM AKDT (10/29)
Length of Visible Light 10h 26m
Length of Day
8h 59m
Waning Crescent, 24% of the Moon is Illuminated
Oct 29
Waning Crescent
Nov 3
New
Nov 9
First Quarter
Nov 17
Full
Nov 25
Last Quarter

Hourly Weather History & Observations

Time (AKDT) Temp. Windchill Dew Point Humidity Pressure Visibility Wind Dir Wind Speed Gust Speed Precip Events Conditions
12:53 AM 44.1 °F - 42.1 °F 93% 29.54 in 10.0 mi Calm Calm - N/A   Overcast
1:53 AM 42.1 °F 39.2 °F 39.9 °F 92% 29.56 in 10.0 mi South 4.6 mph - N/A   Clear
2:53 AM 39.9 °F - 39.0 °F 97% 29.56 in 10.0 mi Calm Calm - N/A   Scattered Clouds
3:53 AM 39.0 °F - 37.0 °F 93% 29.57 in 9.0 mi Calm Calm - N/A   Clear
4:53 AM 37.9 °F - 37.0 °F 97% 29.57 in 6.0 mi Calm Calm - N/A   Mostly Cloudy
5:53 AM 37.0 °F - 35.1 °F 93% 29.57 in 6.0 mi Calm Calm - N/A   Clear
6:53 AM 36.0 °F - 34.0 °F 93% 29.57 in 8.0 mi Calm Calm - N/A   Clear
7:53 AM 36.0 °F - 35.1 °F 97% 29.56 in 9.0 mi Calm Calm - N/A   Scattered Clouds
8:53 AM 39.0 °F 36.8 °F 37.0 °F 93% 29.56 in 10.0 mi South 3.5 mph - N/A   Mostly Cloudy
9:53 AM 39.9 °F - 37.9 °F 93% 29.56 in 10.0 mi Calm Calm - N/A   Mostly Cloudy
10:53 AM 39.9 °F - 39.0 °F 97% 29.56 in 9.0 mi Calm Calm - N/A   Overcast
11:53 AM 42.1 °F - 41.0 °F 96% 29.55 in 10.0 mi Calm Calm - N/A   Overcast
12:53 PM 44.1 °F - 42.1 °F 93% 29.54 in 10.0 mi Calm Calm - N/A   Overcast
1:53 PM 46.0 °F 44.8 °F 42.1 °F 86% 29.51 in 10.0 mi North 3.5 mph - N/A   Overcast
2:53 PM 46.0 °F - 42.1 °F 86% 29.49 in 10.0 mi Calm Calm - N/A   Overcast
3:53 PM 45.0 °F - 43.0 °F 93% 29.47 in 10.0 mi Calm Calm - N/A   Overcast
4:53 PM 45.0 °F - 42.1 °F 90% 29.43 in 10.0 mi Calm Calm - N/A   Mostly Cloudy
5:53 PM 44.1 °F - 41.0 °F 89% 29.40 in 10.0 mi Calm Calm - N/A   Overcast
6:53 PM 42.1 °F - 39.9 °F 92% 29.37 in 10.0 mi Calm Calm - N/A   Overcast
7:53 PM 42.1 °F - 39.9 °F 92% 29.34 in 10.0 mi Calm Calm - 0.00 in   Overcast
8:53 PM 42.1 °F 38.4 °F 39.0 °F 89% 29.30 in 10.0 mi Variable 5.8 mph - 0.00 in Rain Light Rain
9:53 PM 46.0 °F 41.9 °F 36.0 °F 68% 29.25 in 10.0 mi NE 8.1 mph 24.2 mph 0.01 in Rain Light Rain
10:53 PM 45.0 °F 39.3 °F 37.9 °F 76% 29.21 in 10.0 mi NNE 11.5 mph - 0.01 in Rain Light Rain
11:53 PM 44.1 °F 38.1 °F 37.9 °F 79% 29.16 in 10.0 mi NNE 11.5 mph - 0.05 in Rain Light Rain